Muskegon, MI

6:35 PM EST on November 14, 2019 (GMT -0500)
Muskegon County

Weather History for KMKG - September, 2019

Change the Weather History Date:

Friday, September 6, 2019

  Actual Average Record
Temperature  
Mean Temperature 64 °F 66 °F  
Max Temperature 71 °F 75 °F 95 °F (1954)
Min Temperature 57 °F 56 °F 36 °F (1962)
Degree Days  
Heating Degree Days 1 2  
Month to date heating degree days 11 12  
Since 1 July heating degree days 15 42  
Cooling Degree Days 0 3  
Month to date cooling degree days 8 20  
Year to date cooling degree days 553 527  
Growing Degree Days 14 (Base 50)    
Moisture  
Dew Point 58 °F    
Average Humidity 83    
Maximum Humidity 93    
Minimum Humidity 73    
Precipitation  
Precipitation T in 0.12 in 2.31 in (2016)
Month to date precipitation 0.07 0.72  
Year to date precipitation 27.20 21.30  
Snow  
Snow 0.00 in 0.00 in - ()
Month to date snowfall 0.0 0.0  
Since 1 July snowfall 0.0 0.0  
Since 1 September snowfall 0.0 0.0  
Snow Depth 0.00 in    
Sea Level Pressure  
Sea Level Pressure 29.92 in    
Wind  
Wind Speed 9 mph (NNW)    
Max Wind Speed 17 mph    
Max Gust Speed 27 mph    
Visibility 10 miles    
Events Rain    
T = Trace of Precipitation, MM = Missing Value Source: NWS Daily Summary

Daily Weather History Graph

Daily Weather History Graph

Search for Another Location

Airport or City:

Astronomy

Sep. 06, 2019 Rise Set
Actual Time 7:14 AM EDT 8:11 PM EDT
Civil Twilight 6:45 AM EDT 8:40 PM EDT
Nautical Twilight 6:10 AM EDT 9:14 PM EDT
Astronomical Twilight 5:34 AM EDT 9:50 PM EDT
Moon 3:34 PM EDT (9/6) 12:16 AM EDT (9/6)
Length of Visible Light 13h 54m
Length of Day
12h 57m
First Quarter, 55% of the Moon is Illuminated
Sep 6
First Quarter
Sep 14
Full
Sep 21
Last Quarter
Sep 28
New
Oct 5
First Quarter

Hourly Weather History & Observations

Time (EDT) Temp. Dew Point Humidity Pressure Visibility Wind Dir Wind Speed Gust Speed Precip Events Conditions
12:55 AM 57.9 °F 54.0 °F 87% 30.01 in 10.0 mi Calm Calm - 0.01 in   Mostly Cloudy
1:55 AM 57.9 °F 55.0 °F 90% 29.99 in 10.0 mi Calm Calm - N/A   Mostly Cloudy
2:55 AM 59.0 °F 55.0 °F 87% 29.97 in 10.0 mi Calm Calm - N/A   Mostly Cloudy
3:55 AM 59.0 °F 55.0 °F 87% 29.95 in 10.0 mi SE 9.2 mph - N/A   Overcast
4:55 AM 59.0 °F 55.0 °F 87% 29.92 in 10.0 mi SE 4.6 mph - N/A   Overcast
5:55 AM 60.1 °F 55.0 °F 83% 29.89 in 10.0 mi SE 6.9 mph - N/A   Overcast
6:55 AM 60.1 °F 55.9 °F 86% 29.88 in 10.0 mi ESE 5.8 mph - 0.00 in Rain Light Rain
7:55 AM 61.0 °F 55.9 °F 83% 29.87 in 10.0 mi SSE 3.5 mph - 0.00 in   Overcast
8:50 AM 62.6 °F 57.2 °F 82% 29.87 in 10.0 mi Calm Calm - N/A   Overcast
8:55 AM 63.0 °F 57.0 °F 81% 29.87 in 10.0 mi Calm Calm - N/A   Overcast
9:55 AM 68.0 °F 62.1 °F 81% 29.85 in 10.0 mi SW 12.7 mph 23.0 mph N/A   Overcast
10:55 AM 69.1 °F 62.1 °F 78% 29.85 in 10.0 mi West 8.1 mph - 0.00 in   Overcast
11:38 AM 70.0 °F 62.1 °F 76% 29.85 in 10.0 mi WNW 8.1 mph - N/A   Overcast
11:55 AM 69.1 °F 62.1 °F 78% 29.85 in 10.0 mi WNW 10.4 mph - N/A   Overcast
12:55 PM 69.1 °F 62.1 °F 78% 29.86 in 10.0 mi NW 9.2 mph - N/A   Overcast
1:53 PM 69.8 °F 60.8 °F 73% 29.87 in 10.0 mi NNW 10.4 mph - N/A   Overcast
1:55 PM 70.0 °F 61.0 °F 73% 29.86 in 10.0 mi NW 9.2 mph - N/A   Overcast
2:32 PM 68.0 °F 61.0 °F 78% 29.87 in 10.0 mi NNW 10.4 mph - N/A   Overcast
2:55 PM 68.0 °F 61.0 °F 78% 29.88 in 10.0 mi NNW 13.8 mph - N/A   Overcast
3:55 PM 69.1 °F 61.0 °F 75% 29.89 in 10.0 mi NNW 9.2 mph - N/A   Overcast
4:44 PM 69.1 °F 61.0 °F 75% 29.90 in 10.0 mi NNW 8.1 mph - N/A   Overcast
4:55 PM 68.0 °F 61.0 °F 78% 29.90 in 10.0 mi NW 9.2 mph - N/A   Overcast
5:20 PM 69.1 °F 61.0 °F 75% 29.91 in 10.0 mi NW 12.7 mph - N/A   Overcast
5:55 PM 68.0 °F 61.0 °F 78% 29.91 in 10.0 mi NW 15.0 mph - N/A   Overcast
6:13 PM 68.0 °F 61.0 °F 78% 29.92 in 10.0 mi NNW 15.0 mph - N/A   Overcast
6:55 PM 66.9 °F 61.0 °F 81% 29.94 in 10.0 mi NNW 12.7 mph - N/A   Overcast
7:55 PM 64.9 °F 60.1 °F 84% 29.95 in 10.0 mi NNW 15.0 mph 24.2 mph 0.00 in   Overcast
8:24 PM 64.9 °F 57.9 °F 78% 29.97 in 10.0 mi North 11.5 mph 21.9 mph N/A   Overcast
8:39 PM 64.9 °F 57.0 °F 75% 29.97 in 10.0 mi North 13.8 mph - N/A   Overcast
8:53 PM 64.4 °F 57.2 °F 77% 29.98 in 10.0 mi North 16.1 mph 24.2 mph N/A   Overcast
8:55 PM 64.9 °F 57.0 °F 75% 29.98 in 10.0 mi North 15.0 mph - N/A   Overcast
9:45 PM 64.0 °F 55.9 °F 75% 30.00 in 10.0 mi North 12.7 mph - N/A   Overcast
9:55 PM 64.0 °F 55.9 °F 75% 30.00 in 10.0 mi North 13.8 mph - N/A   Mostly Cloudy
10:25 PM 63.0 °F 55.0 °F 75% 30.01 in 10.0 mi NNW 9.2 mph - N/A   Overcast
10:34 PM 63.0 °F 55.0 °F 75% 30.02 in 10.0 mi NNW 10.4 mph - N/A   Overcast
10:55 PM 62.1 °F 55.0 °F 78% 30.02 in 10.0 mi NNW 9.2 mph - N/A   Mostly Cloudy
11:55 PM 61.0 °F 55.0 °F 81% 30.01 in 10.0 mi NNW 8.1 mph - N/A   Scattered Clouds